Regional Weather Roundup
Issued by NWS

Home | Current Version | Previous Version | Graphics & Text | Print | Product List | Glossary On
Versions: 1 2 3 4 5 6 7 8 9 10 11 12 13 14 15 16 17 18 19 20 21 22 23 24 25 26 27 28 29 30 31 32 33 34 35 36 37 38 39 40 41 42 43 44 45 46 47 48 49 50
000
ASUS45 KBOU 040107
RWRCO

WEATHER ROUNDUP FOR COLORADO
NATIONAL WEATHER SERVICE DENVER/BOULDER CO
700 PM MDT THU SEP 03 2015

NOTE: "FAIR" INDICATES FEW OR NO CLOUDS BELOW 12000 FEET WITH NO
SIGNIFICANT WEATHER AND/OR OBSTRUCTIONS TO VISIBILITY.

COZ001>005-013-030-031-040200-
...NORTHWEST COLORADO...

CITY           SKY/WX    TMP DP  RH WIND       PRES   REMARKS
CRAIG          CLEAR     68  47  46 E17G29    30.04F
HAYDEN         CLEAR     64  43  45 E22       30.08F
MEEKER         CLEAR     73  46  38 E3        30.04F
MOUNT WERNER   NOT AVBL
STEAMBOAT SPGS CLEAR     66  45  46 SW3       30.12S
WALDEN         CLOUDY    54  45  71 E8        30.21F
$$

COZ006>008-011-040200-
...WEST CENTRAL VALLEYS...

CITY           SKY/WX    TMP DP  RH WIND       PRES   REMARKS
GRAND JUNCTION PTCLDY    77  48  35 SE17      29.92F
MONTROSE       CLEAR     75  51  43 W8        30.03F
EAGLE          CLEAR     70  46  43 CALM      30.14F
RIFLE          CLEAR     73  52  47 NE6       30.01F
DELTA          CLEAR     81  43  26 NE6       29.98F HAZE
NUCLA          CLEAR     81  32  17 SW14      30.04S
$$

COZ017>023-064>068-040200-
...SOUTHWEST COLORADO...

CITY           SKY/WX    TMP DP  RH WIND       PRES   REMARKS
DURANGO        CLEAR     76  37  24 SW8       30.09R
CORTEZ         CLEAR     80  42  25 CALM      30.03S
PAGOSA SPRINGS CLEAR     70  42  37 E3        30.19R
TELLURIDE      PTCLDY    63  48  58 CALM      30.28S
WOLF CREEK PAS NOT AVBL
$$

COZ009-010-012-014-032>034-037-058>063-040200-
...CENTRAL COLORADO...

CITY           SKY/WX    TMP DP  RH WIND       PRES   REMARKS
ASPEN          CLEAR     62  47  57 SE6       30.18F
BUENA VISTA    CLEAR     65  45  49 W6        30.19R
COPPER MTN     FOG       46  43  87 S8        30.48S VSB 1/2
BERTHOUD PASS  CLOUDY    37  28  70 W14G25    30.51R
COTTONWOOD PAS CLEAR     61  41  48 W3        30.31S
GUNNISON       CLEAR     64  46  52 N6        30.21S
KREMMLING      MOCLDY    59  45  58 CALM      30.21S
LEADVILLE      PTCLDY    54  43  66 N8        30.32F
MONARCH PASS   CLEAR     48  39  71 W21       30.56S
SALIDA         CLEAR     71  45  38 NW5       30.22R
SUNLIGHT       CLEAR     52  45  76 CALM      30.40S
WILKERSON PASS CLOUDY    52  41  66 CALM      30.45S
$$

COZ069>075-040200-
...SAN LUIS VALLEY/SANGRE DE CRISTO MOUNTAINS...

CITY           SKY/WX    TMP DP  RH WIND       PRES   REMARKS
ALAMOSA        PTCLDY    63  46  54 NE7       30.18S
LA VETA PASS   CLOUDY    55  39  54 MISG      30.33S
SAGUACHE       PTCLDY    61  48  63 SE8       30.20R
$$

COZ035-036-038>040-040200-
...NORTHERN COLORADO FRONT RANGE...

CITY           SKY/WX    TMP DP  RH WIND       PRES   REMARKS
DENVER INTL AP RAIN      65  57  75 W14       30.01F
DMNS CITY PARK   N/A     64  59  86 W2G10     30.03F
AURORA         MOCLDY    64  59  83 S3        30.05F
FRONT RANGE AP MOCLDY    63  57  82 W12       30.04F
ERIE MUNI ARPT MOCLDY    67  58  72 SE7       30.01F
BOULDER MUN AP MOCLDY    68  55  64 CALM      30.01S
CENTENNIAL     MOCLDY    65  57  75 N6        30.05F
BROOMFIELD     MOCLDY    66  55  68 SE5       30.05F
FORT COLLINS   CLOUDY    73  48  40 CALM      30.00S
LONGMONT       CLOUDY    70  55  57 CALM      30.03R
$$

COZ041-046-047-076>085-087-088-040200-
...PIKES PEAK/PALMER DIVIDE AND SOUTHERN FOOTHILLS...

CITY           SKY/WX    TMP DP  RH WIND       PRES   REMARKS
COLO. SPRINGS  CLOUDY    67  53  61 N13       30.05S
A. F. ACADEMY  MOCLDY    63  55  75 N10       30.08F
ELLICOTT       CLOUDY   N/A N/A N/A N13G21    30.02S
FALCON         TSTM      60  54  79 MISG      30.10F
FORT CARSON    PTCLDY    66  56  70 N15       30.01S
LIMON          CLOUDY    67  53  61 NW28G39   29.98R
MONUMENT HILL  TSTM      59  55  88 SW5       30.15R
TRINIDAD       MOCLDY    77  48  35 NW17G29   29.97R
$$

COZ042>045-048>051-090-091-040200-
...NORTHEAST COLORADO...

CITY           SKY/WX    TMP DP  RH WIND       PRES   REMARKS
GREELEY ARPT   CLOUDY    70  57  64 W9        30.00R
AKRON          CLOUDY    80  46  30 NW16      29.90R
BURLINGTON     MOCLDY    83  50  31 SE8       29.83S
WRAY           CLOUDY    84  49  30 NE13      29.79S
STERLING       CLOUDY    79  48  34 W12       29.85S
HOLYOKE        CLOUDY    86  45  23 N10       29.81S
FORT MORGAN    CLOUDY    74  46  37 W17G23    29.93R
$$

COZ086-089-092>099-040200-
...SOUTHEAST COLORADO...

CITY           SKY/WX    TMP DP  RH WIND       PRES   REMARKS
PUEBLO         MOCLDY    77  54  44 NW14      29.91R
LA JUNTA       MOCLDY    89  44  20 W3        29.80S
LAMAR          MOCLDY    91  46  21 S16G25    29.76R
SPRINGFIELD      N/A     86  45  23 S22G30    29.86S
$$




USA.gov is the U.S. government's official web portal to all federal, state and local government web resources and services.